W4MSI Weather Reports


time (UTC)temp
C
wind
direction
speed
KPH
gust
KPH
rain 1hr
cm
rain 24hr
cm
rain mn
cm
humidity
%
barometer
mb
20260906004015 30 223 0.0 0.0 0.00 0.00 0.00 63 1010.7
20260906003511 30 223 0.0 0.0 0.00 0.00 0.00 62 1010.7
20260906003007 30 223 0.0 0.0 0.00 0.00 0.00 61 1010.8
20260906002507 30 223 0.0 0.0 0.00 0.00 0.00 63 1010.8
20260906002001 31 223 0.0 0.0 0.00 0.00 0.00 60 1010.8
20260906001458 31 223 0.0 0.0 0.00 0.00 0.00 60 1010.9
20260906000952 31 223 0.0 0.0 0.00 0.00 0.00 57 1010.9
20260906000448 31 223 0.0 0.0 0.00 0.00 0.00 60 1010.9
20260905235942 32 223 0.0 0.0 0.00 0.00 0.00 57 1010.9
20260905235441 32 223 0.0 0.0 0.00 0.00 0.00 57 1010.8
20260905234937 32 223 0.0 0.0 0.00 0.00 0.00 55 1010.7
20260905234432 33 223 0.0 0.0 0.00 0.00 0.00 53 1010.9
20260905233926 33 223 0.0 0.0 0.00 0.00 0.00 54 1010.9
20260905233422 33 223 0.0 0.0 0.00 0.00 0.00 52 1010.7
20260905232921 34 223 0.0 0.0 0.00 0.00 0.00 51 1010.6
20260905232417 35 223 0.0 0.0 0.00 0.00 0.00 50 1010.7
20260905231912 35 222 0.0 0.0 0.00 0.00 0.00 47 1010.8
20260905231408 35 217 0.0 0.0 0.00 0.00 0.00 47 1010.8
20260905230904 35 219 0.0 0.0 0.00 0.00 0.00 47 1010.7
20260905230402 36 233 0.0 0.0 0.00 0.00 0.00 46 1010.8
20260905225901 36 188 0.0 0.0 0.00 0.00 0.00 46 1010.7
20260905225356 36 192 0.0 0.0 0.00 0.00 0.00 48 1010.7
20260905224851 36 321 0.0 0.0 0.00 0.00 0.00 46 1010.7
20260905224348 36 219 1.6 1.6 0.00 0.00 0.00 44 1010.4
20260905223842 36 252 0.0 0.0 0.00 0.00 0.00 43 1010.5
20260905223340 37 279 3.2 3.2 0.00 0.00 0.00 41 1010.7
20260905222840 37 310 3.2 3.2 0.00 0.00 0.00 40 1010.6
20260905222338 37 234 3.2 3.2 0.00 0.00 0.00 41 1010.5
20260905221835 37 216 0.0 0.0 0.00 0.00 0.00 44 1010.5
20260905221331 37 65 0.0 0.0 0.00 0.00 0.00 42 1010.7
20260905220827 37 265 3.2 4.8 0.00 0.00 0.00 41 1010.5
20260905220323 37 202 1.6 3.2 0.00 0.00 0.00 41 1010.6
20260905215822 37 197 0.0 0.0 0.00 0.00 0.00 43 1010.6
20260905215318 37 160 0.0 0.0 0.00 0.00 0.00 41 1010.6
20260905214814 37 223 0.0 0.0 0.00 0.00 0.00 41 1010.5
20260905214309 37 200 3.2 3.2 0.00 0.00 0.00 39 1010.8
20260905213805 36 328 3.2 4.8 0.00 0.00 0.00 40 1010.6
20260905213301 36 25 4.8 4.8 0.00 0.00 0.00 41 1010.8
20260905212801 37 5 1.6 3.2 0.00 0.00 0.00 42 1010.8
20260905212255 37 168 0.0 1.6 0.00 0.00 0.00 44 1010.7
20260905211755 37 83 3.2 3.2 0.00 0.00 0.00 41 1010.6
20260905211250 37 163 0.0 0.0 0.00 0.00 0.00 41 1010.7
20260905210747 38 229 3.2 3.2 0.00 0.00 0.00 39 1010.7
20260905210246 38 261 8.0 9.7 0.00 0.00 0.00 38 1011.0
20260905205745 38 233 4.8 6.4 0.00 0.00 0.00 39 1010.9
20260905205240 38 316 1.6 1.6 0.00 0.00 0.00 41 1011.0
20260905204739 38 248 3.2 4.8 0.00 0.00 0.00 40 1011.0
20260905204235 38 200 3.2 4.8 0.00 0.00 0.00 40 1011.0
20260905203735 37 176 0.0 0.0 0.00 0.00 0.00 41 1011.2
20260905203230 37 246 1.6 3.2 0.00 0.00 0.00 38 1011.3
20260905202726 37 259 1.6 1.6 0.00 0.00 0.00 42 1011.5
20260905202222 37 204 1.6 3.2 0.00 0.00 0.00 41 1011.4
20260905201717 37 288 1.6 3.2 0.00 0.00 0.00 41 1011.5
20260905201216 37 225 6.4 6.4 0.00 0.00 0.00 42 1011.6
20260905200712 36 232 1.6 3.2 0.00 0.00 0.00 42 1011.7
20260905200207 37 195 3.2 3.2 0.00 0.00 0.00 42 1011.6
20260905195705 37 277 1.6 1.6 0.00 0.00 0.00 43 1011.8
20260905195200 36 252 3.2 3.2 0.00 0.00 0.00 44 1011.8
20260905194656 36 221 0.0 0.0 0.00 0.00 0.00 45 1012.0
20260905194156 36 238 0.0 1.6 0.00 0.00 0.00 44 1012.0
20260905193655 36 261 0.0 0.0 0.00 0.00 0.00 45 1012.0
20260905193151 37 184 4.8 4.8 0.00 0.00 0.00 42 1011.7
20260905192646 37 190 8.0 9.7 0.00 0.00 0.00 43 1011.9
20260905192143 37 207 9.7 12.9 0.00 0.00 0.00 41 1012.2
20260905191642 37 214 1.6 3.2 0.00 0.00 0.00 41 1012.2
20260905191140 37 260 6.4 6.4 0.00 0.00 0.00 40 1012.4
20260905190638 37 178 1.6 1.6 0.00 0.00 0.00 42 1012.5
20260905190133 36 57 0.0 1.6 0.00 0.00 0.00 43 1012.4
20260905185631 37 252 4.8 4.8 0.00 0.00 0.00 40 1012.7
20260905185126 37 107 1.6 3.2 0.00 0.00 0.00 44 1012.4
20260905184626 37 1 3.2 4.8 0.00 0.00 0.00 43 1012.7
20260905184125 37 279 3.2 6.4 0.00 0.00 0.00 41 1012.5
20260905183624 36 185 3.2 3.2 0.00 0.00 0.00 42 1012.7
20260905183120 36 200 4.8 4.8 0.00 0.00 0.00 42 1012.8
20260905182619 36 216 8.0 11.3 0.00 0.00 0.00 42 1012.9
20260905182120 36 280 4.8 4.8 0.00 0.00 0.00 43 1012.8
20260905181620 36 204 3.2 3.2 0.00 0.00 0.00 42 1012.8
20260905181119 36 205 6.4 9.7 0.00 0.00 0.00 42 1012.9
20260905180614 36 202 1.6 1.6 0.00 0.00 0.00 41 1012.9
20260905180109 36 265 6.4 6.4 0.00 0.00 0.00 39 1013.0
20260905175608 35 216 6.4 6.4 0.00 0.00 0.00 44 1013.3
20260905175104 35 93 3.2 3.2 0.00 0.00 0.00 49 1013.4
20260905174600 35 29 4.8 6.4 0.00 0.00 0.00 47 1013.5
20260905174054 36 99 3.2 6.4 0.00 0.00 0.00 46 1013.4
20260905173551 36 142 1.6 1.6 0.00 0.00 0.00 45 1013.5
20260905173046 36 228 4.8 4.8 0.00 0.00 0.00 46 1013.6
20260905172545 36 93 4.8 6.4 0.00 0.00 0.00 45 1013.7
20260905172040 36 156 3.2 3.2 0.00 0.00 0.00 45 1013.7
20260905171537 36 267 4.8 4.8 0.00 0.00 0.00 44 1013.9
20260905171032 36 179 1.6 1.6 0.00 0.00 0.00 47 1013.9
20260905170529 35 191 3.2 3.2 0.00 0.00 0.00 47 1013.8
20260905170024 36 63 3.2 3.2 0.00 0.00 0.00 47 1013.9
20260905165519 36 299 0.0 1.6 0.00 0.00 0.00 47 1013.9
20260905165014 35 163 1.6 1.6 0.00 0.00 0.00 48 1013.7
20260905164514 35 48 3.2 3.2 0.00 0.00 0.00 51 1014.0
20260905164008 35 329 3.2 3.2 0.00 0.00 0.00 51 1014.0
20260905163505 35 235 3.2 3.2 0.00 0.00 0.00 51 1014.2
20260905163000 35 166 0.0 1.6 0.00 0.00 0.00 49 1014.1
20260905162455 35 202 3.2 4.8 0.00 0.00 0.00 49 1014.0
20260905161950 35 211 3.2 4.8 0.00 0.00 0.00 52 1014.2
20260905161450 35 27 4.8 6.4 0.00 0.00 0.00 50 1014.1
20260905160948 35 21 3.2 3.2 0.00 0.00 0.00 51 1014.3
20260905160442 35 285 6.4 6.4 0.00 0.00 0.00 50 1014.4
20260905155941 35 221 3.2 4.8 0.00 0.00 0.00 50 1014.3
20260905155436 35 242 1.6 1.6 0.00 0.00 0.00 53 1014.1
20260905154935 34 122 1.6 1.6 0.00 0.00 0.00 54 1014.4
20260905154430 35 145 0.0 1.6 0.00 0.00 0.00 53 1014.4
20260905153926 35 171 0.0 0.0 0.00 0.00 0.00 53 1014.4
20260905153422 35 120 3.2 4.8 0.00 0.00 0.00 53 1014.4
20260905152922 35 257 1.6 1.6 0.00 0.00 0.00 52 1014.5
20260905152421 35 287 1.6 1.6 0.00 0.00 0.00 55 1014.5
20260905151916 34 14 3.2 3.2 0.00 0.00 0.00 54 1014.6
20260905151412 34 348 6.4 6.4 0.00 0.00 0.00 53 1014.6
20260905150907 34 153 0.0 0.0 0.00 0.00 0.00 54 1014.6
20260905150406 34 144 1.6 3.2 0.00 0.00 0.00 55 1014.7
20260905145904 33 181 0.0 0.0 0.00 0.00 0.00 57 1014.7
20260905145404 33 48 0.0 1.6 0.00 0.00 0.00 56 1014.5
20260905144903 33 116 1.6 1.6 0.00 0.00 0.00 58 1014.7
20260905144359 33 101 1.6 1.6 0.00 0.00 0.00 60 1014.6
20260905143857 33 21 1.6 1.6 0.00 0.00 0.00 59 1014.8
20260905143352 33 175 0.0 1.6 0.00 0.00 0.00 59 1014.5
20260905142851 33 187 1.6 1.6 0.00 0.00 0.00 60 1014.6
20260905142350 33 24 1.6 3.2 0.00 0.00 0.00 60 1014.6
20260905141846 32 123 0.0 1.6 0.00 0.00 0.00 61 1014.7
20260905141341 32 264 3.2 3.2 0.00 0.00 0.00 61 1014.7
20260905140837 32 209 0.0 0.0 0.00 0.00 0.00 62 1014.9
20260905140337 32 285 1.6 1.6 0.00 0.00 0.00 62 1014.8
20260905135836 32 184 1.6 3.2 0.00 0.00 0.00 63 1014.8
20260905135332 32 49 0.0 0.0 0.00 0.00 0.00 65 1014.8
20260905134828 32 20 0.0 0.0 0.00 0.00 0.00 64 1014.7
20260905134326 31 165 0.0 1.6 0.00 0.00 0.00 68 1014.7
20260905133827 31 30 3.2 4.8 0.00 0.00 0.00 66 1014.9
20260905133322 31 145 0.0 0.0 0.00 0.00 0.00 68 1014.8
20260905132821 32 347 1.6 3.2 0.00 0.00 0.00 64 1014.7
20260905132317 31 359 0.0 0.0 0.00 0.00 0.00 67 1014.9
20260905131816 31 359 0.0 0.0 0.00 0.00 0.00 68 1014.8
20260905131312 31 250 0.0 0.0 0.00 0.00 0.00 67 1014.8
20260905130807 31 287 0.0 0.0 0.00 0.00 0.00 69 1014.9
20260905130306 31 288 0.0 0.0 0.00 0.00 0.00 69 1014.6
20260905125801 30 289 0.0 0.0 0.00 0.00 0.00 73 1014.5
20260905125256 29 289 0.0 0.0 0.00 0.00 0.00 75 1014.9
20260905124753 29 289 0.0 0.0 0.00 0.00 0.00 75 1014.7
20260905124248 28 289 0.0 0.0 0.00 0.00 0.00 76 1014.8
20260905123743 28 289 0.0 0.0 0.00 0.00 0.00 78 1014.8
20260905123240 27 289 0.0 0.0 0.00 0.00 0.00 79 1014.7
20260905122735 27 289 0.0 0.0 0.00 0.00 0.00 80 1014.7
20260905122234 26 289 0.0 0.0 0.00 0.00 0.00 81 1014.7
20260905121730 26 289 0.0 0.0 0.00 0.00 0.00 82 1014.8
20260905121226 26 289 0.0 0.0 0.00 0.00 0.00 83 1014.6
20260905120724 26 290 0.0 0.0 0.00 0.00 0.00 83 1014.5
20260905120219 25 290 0.0 0.0 0.00 0.00 0.00 83 1014.5
20260905115720 25 290 0.0 0.0 0.00 0.00 0.00 83 1014.4
20260905115219 25 291 0.0 0.0 0.00 0.00 0.00 84 1014.4
20260905114714 25 292 0.0 0.0 0.00 0.00 0.00 84 1014.4
20260905114213 25 305 0.0 0.0 0.00 0.00 0.00 85 1014.3
20260905113712 25 305 0.0 0.0 0.00 0.00 0.00 85 1014.3
20260905113208 25 305 0.0 0.0 0.00 0.00 0.00 85 1014.1
20260905112708 25 305 0.0 0.0 0.00 0.00 0.00 84 1014.3
20260905112204 25 305 0.0 0.0 0.00 0.00 0.00 84 1014.2
20260905111703 25 307 0.0 0.0 0.00 0.00 0.00 85 1014.2
20260905111203 25 284 0.0 0.0 0.00 0.00 0.00 86 1014.1
20260905110702 25 262 0.0 0.0 0.00 0.00 0.00 86 1014.1
20260905110157 25 262 0.0 0.0 0.00 0.00 0.00 86 1013.9
20260905105653 25 262 0.0 0.0 0.00 0.00 0.00 85 1013.9
20260905105151 25 262 0.0 0.0 0.00 0.00 0.00 85 1013.9
20260905104646 25 262 0.0 0.0 0.00 0.00 0.00 85 1013.8
20260905104142 25 262 0.0 0.0 0.00 0.00 0.00 85 1013.9
20260905103637 25 320 0.0 0.0 0.00 0.00 0.00 86 1013.8
20260905103133 25 320 0.0 0.0 0.00 0.00 0.00 86 1013.7
20260905102628 25 320 0.0 0.0 0.00 0.00 0.00 86 1013.7
20260905102125 25 320 0.0 0.0 0.00 0.00 0.00 87 1013.7
20260905101623 24 320 0.0 0.0 0.00 0.00 0.00 89 1013.8
20260905101122 23 320 0.0 0.0 0.00 0.00 0.00 90 1013.7
20260905100619 23 320 0.0 0.0 0.00 0.00 0.00 90 1013.4
20260905100114 23 320 0.0 0.0 0.00 0.00 0.00 91 1013.7
20260905095613 23 320 0.0 0.0 0.00 0.00 0.00 91 1013.5
20260905095109 23 320 0.0 0.0 0.00 0.00 0.00 91 1013.5
20260905094609 23 320 0.0 0.0 0.00 0.00 0.00 90 1013.6
20260905094109 23 320 0.0 0.0 0.00 0.00 0.00 90 1013.5
20260905093608 23 320 0.0 0.0 0.00 0.00 0.00 90 1013.5
20260905093105 23 320 0.0 0.0 0.00 0.00 0.00 90 1013.4
20260905092604 23 320 0.0 0.0 0.00 0.00 0.00 89 1013.4
20260905092101 24 285 1.6 1.6 0.00 0.00 0.00 88 1013.5
20260905091600 25 262 0.0 0.0 0.00 0.00 0.00 87 1013.4
20260905091054 25 262 0.0 0.0 0.00 0.00 0.00 87 1013.4
20260905090554 24 262 0.0 0.0 0.00 0.00 0.00 87 1013.2
20260905090050 24 262 0.0 0.0 0.00 0.00 0.00 90 1013.2
20260905085548 24 262 0.0 0.0 0.00 0.00 0.00 90 1013.0
20260905085044 24 262 0.0 0.0 0.00 0.00 0.00 89 1013.2
20260905084543 25 262 0.0 0.0 0.00 0.00 0.00 89 1013.0
20260905084039 24 262 0.0 0.0 0.00 0.00 0.00 87 1013.2
20260905083533 24 262 0.0 0.0 0.00 0.00 0.00 89 1013.2
20260905083030 24 262 0.0 0.0 0.00 0.00 0.00 89 1013.3
20260905082525 24 262 0.0 0.0 0.00 0.00 0.00 88 1013.0
20260905082021 24 262 0.0 0.0 0.00 0.00 0.00 88 1013.3
20260905081520 24 262 0.0 0.0 0.00 0.00 0.00 88 1013.3
20260905081015 24 263 0.0 0.0 0.00 0.00 0.00 87 1013.3
20260905080515 24 263 0.0 0.0 0.00 0.00 0.00 88 1013.3
20260905080010 24 263 0.0 0.0 0.00 0.00 0.00 88 1013.3
20260905075503 24 263 0.0 0.0 0.00 0.00 0.00 89 1013.4
20260905075003 25 263 0.0 0.0 0.00 0.00 0.00 88 1013.5
20260905074458 25 211 0.0 0.0 0.00 0.00 0.00 87 1013.2
20260905073953 25 209 0.0 0.0 0.00 0.00 0.00 87 1013.4
20260905073448 25 209 0.0 0.0 0.00 0.00 0.00 87 1013.3
20260905072944 25 209 0.0 0.0 0.00 0.00 0.00 87 1013.4
20260905072438 25 209 0.0 0.0 0.00 0.00 0.00 87 1013.3
20260905071934 25 209 0.0 0.0 0.00 0.00 0.00 86 1013.5
20260905071431 25 247 0.0 0.0 0.00 0.00 0.00 86 1013.6
20260905070930 25 247 0.0 0.0 0.00 0.00 0.00 86 1013.5
20260905070427 25 221 0.0 0.0 0.00 0.00 0.00 86 1013.7
20260905065926 25 190 0.0 0.0 0.00 0.00 0.00 87 1013.6
20260905065424 25 190 0.0 0.0 0.00 0.00 0.00 87 1013.6
20260905064919 25 191 0.0 0.0 0.00 0.00 0.00 85 1013.7
20260905064415 25 191 0.0 0.0 0.00 0.00 0.00 87 1013.8
20260905063914 25 191 0.0 0.0 0.00 0.00 0.00 87 1013.9
20260905063410 25 191 0.0 0.0 0.00 0.00 0.00 87 1013.8
20260905062907 25 191 0.0 0.0 0.00 0.00 0.00 86 1013.9
20260905062406 25 191 0.0 0.0 0.00 0.00 0.00 85 1014.1
20260905061901 25 191 0.0 0.0 0.00 0.00 0.00 86 1014.2
20260905061400 25 191 0.0 0.0 0.00 0.00 0.00 85 1014.0
20260905060855 25 191 0.0 0.0 0.00 0.00 0.00 85 1014.0
20260905060352 25 191 0.0 0.0 0.00 0.00 0.00 86 1014.0
20260905055850 25 191 0.0 0.0 0.00 0.00 0.00 88 1014.0
20260905055346 25 157 0.0 0.0 0.00 0.00 0.00 88 1014.0
20260905054845 25 157 0.0 0.0 0.00 0.00 0.00 89 1014.2
20260905054342 25 159 1.6 3.2 0.00 0.00 0.00 89 1014.2
20260905053841 25 252 0.0 0.0 0.00 0.00 0.00 87 1014.0
20260905053342 25 252 0.0 0.0 0.00 0.00 0.00 87 1014.1
20260905052837 25 252 0.0 0.0 0.00 0.00 0.00 87 1013.9
20260905052337 25 253 0.0 0.0 0.00 0.00 0.00 86 1014.1
20260905051836 25 253 0.0 1.6 0.00 0.00 0.00 86 1014.2
20260905051332 26 253 0.0 1.6 0.00 0.00 0.00 85 1014.0
20260905050829 26 223 0.0 0.0 0.00 0.00 0.00 84 1013.9
20260905050325 26 223 0.0 0.0 0.00 0.00 0.00 84 1014.0
20260905045820 26 223 0.0 0.0 0.00 0.00 0.00 84 1013.9
20260905045315 26 223 0.0 0.0 0.00 0.00 0.00 83 1013.9
20260905044810 26 223 0.0 0.0 0.00 0.00 0.00 82 1014.0
20260905044305 26 223 0.0 0.0 0.00 0.00 0.00 82 1014.0
20260905043804 26 223 0.0 0.0 0.00 0.00 0.00 82 1014.2
20260905043259 26 223 0.0 0.0 0.00 0.00 0.00 83 1014.1
20260905042759 26 223 0.0 0.0 0.00 0.00 0.00 83 1014.2
20260905042259 26 223 0.0 0.0 0.00 0.00 0.00 82 1014.3
20260905041754 26 223 0.0 0.0 0.00 0.00 0.00 82 1014.3
20260905041249 26 223 0.0 0.0 0.00 0.00 0.00 81 1014.3
20260905040744 26 222 0.0 0.0 0.00 0.00 0.00 81 1014.1
20260905040243 27 222 0.0 0.0 0.00 0.00 0.00 81 1014.0
20260905035738 27 223 0.0 0.0 0.00 0.00 0.00 79 1014.3
20260905035234 27 223 0.0 0.0 0.00 0.00 0.00 79 1014.2
20260905034731 27 223 0.0 0.0 0.00 0.00 0.00 79 1014.4
20260905034230 27 223 0.0 0.0 0.00 0.00 0.00 77 1014.2
20260905033729 28 223 0.0 0.0 0.00 0.00 0.00 75 1014.2
20260905033225 27 224 0.0 0.0 0.00 0.00 0.00 74 1014.2
20260905032724 27 209 0.0 1.6 0.00 0.00 0.00 77 1014.3
20260905032220 27 214 1.6 1.6 0.00 0.00 0.00 77 1014.2
20260905031715 27 219 1.6 1.6 0.00 0.00 0.00 79 1014.4
20260905031210 27 214 0.0 0.0 0.00 0.00 0.00 80 1014.5
20260905030705 27 214 0.0 0.0 0.00 0.00 0.00 80 1014.4
20260905030201 27 213 1.6 1.6 0.00 0.00 0.00 79 1014.5
20260905025655 27 203 0.0 0.0 0.00 0.00 0.00 82 1014.5
20260905025151 27 204 0.0 0.0 0.00 0.00 0.00 77 1014.4
20260905024647 27 203 0.0 0.0 0.00 0.00 0.00 77 1014.5
20260905024142 27 203 0.0 0.0 0.00 0.00 0.00 77 1014.4
20260905023637 27 203 0.0 0.0 0.00 0.00 0.00 75 1014.5
20260905023137 28 204 0.0 0.0 0.00 0.00 0.00 76 1014.4
20260905022636 28 204 0.0 0.0 0.00 0.00 0.00 74 1014.4
20260905022132 27 203 0.0 0.0 0.00 0.00 0.00 74 1014.5
20260905021631 27 165 0.0 0.0 0.00 0.00 0.00 77 1014.3
20260905021127 27 165 0.0 0.0 0.00 0.00 0.00 77 1014.5
20260905020627 27 181 1.6 1.6 0.00 0.00 0.00 78 1014.4
20260905020122 27 208 0.0 0.0 0.00 0.00 0.00 80 1014.4
20260905015621 27 208 0.0 0.0 0.00 0.00 0.00 80 1014.4
20260905015116 27 208 0.0 0.0 0.00 0.00 0.00 77 1014.4
20260905014615 27 208 0.0 0.0 0.00 0.00 0.00 79 1014.3
20260905014111 27 209 0.0 0.0 0.00 0.00 0.00 77 1014.1
20260905013607 27 209 0.0 0.0 0.00 0.00 0.00 75 1014.0
20260905013103 27 209 0.0 0.0 0.00 0.00 0.00 78 1014.1
20260905012602 27 209 0.0 0.0 0.00 0.00 0.00 75 1014.1
20260905012059 28 209 0.0 0.0 0.00 0.00 0.00 75 1013.9
20260905011555 28 209 0.0 0.0 0.00 0.00 0.00 71 1013.9
20260905011051 28 209 0.0 0.0 0.00 0.00 0.00 70 1013.9
20260905010550 28 209 0.0 0.0 0.00 0.00 0.00 69 1014.0
20260905010047 28 232 6.4 6.4 0.00 0.00 0.00 71 1013.8
20260905005542 28 203 0.0 0.0 0.00 0.00 0.00 73 1013.7
20260905005037 28 203 0.0 0.0 0.00 0.00 0.00 75 1013.7
20260905004532 29 203 0.0 0.0 0.00 0.00 0.00 76 1013.8